Time,TemperatureF,DewpointF,PressureIn,WindDirection,WindDirectionDegrees,WindSpeedMPH,WindSpeedGustMPH,Humidity,HourlyPrecipIn,Conditions,Clouds,dailyrainin,SoftwareType,DateUTC
2013-02-09 00:01:00,29.0,15.0,-100.00,SW,216,2.0,3.0,57,0.00,,,-99.99,,2013-02-09 07:01:00,
2013-02-09 00:11:00,29.0,15.0,-100.00,SW,227,2.0,3.0,56,0.00,,,-99.99,,2013-02-09 07:11:00,
2013-02-09 00:21:00,29.0,15.0,-100.00,WNW,285,3.0,5.0,53,0.00,,,-99.99,,2013-02-09 07:21:00,
2013-02-09 00:31:00,29.0,15.0,-100.00,NW,319,4.0,6.0,55,0.00,,,-99.99,,2013-02-09 07:31:00,
2013-02-09 00:42:00,28.0,15.0,-100.00,WNW,296,3.0,6.0,58,0.00,,,-99.99,,2013-02-09 07:42:00,
2013-02-09 00:51:00,28.0,17.0,-100.00,WSW,257,3.0,5.0,63,0.00,,,-99.99,,2013-02-09 07:51:00,
2013-02-09 01:01:00,27.0,18.0,-100.00,WNW,282,4.0,7.0,67,0.00,,,-99.99,,2013-02-09 08:01:00,
2013-02-09 01:11:00,27.0,18.0,-100.00,West,271,5.0,7.0,68,0.00,,,-99.99,,2013-02-09 08:11:00,
2013-02-09 01:21:00,27.0,13.0,-100.00,North,6,6.0,10.0,56,0.00,,,-99.99,,2013-02-09 08:21:00,
2013-02-09 01:31:00,26.0,11.0,-100.00,North,0,5.0,9.0,53,0.00,,,-99.99,,2013-02-09 08:31:00,
2013-02-09 01:42:00,25.0,11.0,-100.00,North,353,6.0,9.0,54,0.00,,,-99.99,,2013-02-09 08:42:00,
2013-02-09 01:52:00,24.0,11.0,-100.00,NNW,340,5.0,6.0,56,0.00,,,-99.99,,2013-02-09 08:52:00,
2013-02-09 02:03:00,24.0,11.0,-100.00,NW,319,4.0,6.0,58,0.00,,,-99.99,,2013-02-09 09:03:00,
2013-02-09 02:11:00,23.0,11.0,-100.00,NNW,333,2.0,6.0,59,0.00,,,-99.99,,2013-02-09 09:11:00,
2013-02-09 02:21:00,23.0,11.0,-100.00,NE,45,4.0,6.0,60,0.00,,,-99.99,,2013-02-09 09:21:00,
2013-02-09 02:31:00,22.0,11.0,-100.00,NE,44,4.0,7.0,62,0.00,,,-99.99,,2013-02-09 09:31:00,
2013-02-09 02:41:00,22.0,11.0,-100.00,ENE,61,4.0,6.0,64,0.00,,,-99.99,,2013-02-09 09:41:00,
2013-02-09 02:51:00,22.0,11.0,-100.00,NNE,27,2.0,5.0,64,0.00,,,-99.99,,2013-02-09 09:51:00,
2013-02-09 03:01:00,22.0,12.0,-100.00,SE,124,3.0,6.0,65,0.00,,,-99.99,,2013-02-09 10:01:00,
2013-02-09 03:11:00,22.0,12.0,-100.00,SE,124,2.0,6.0,65,0.00,,,-99.99,,2013-02-09 10:11:00,
2013-02-09 03:21:00,22.0,12.0,-100.00,NNE,32,2.0,3.0,65,0.00,,,-99.99,,2013-02-09 10:21:00,
2013-02-09 03:31:00,22.0,12.0,-100.00,ENE,71,1.0,2.0,66,0.00,,,-99.99,,2013-02-09 10:31:00,
2013-02-09 03:41:00,22.0,12.0,-100.00,SE,124,4.0,6.0,67,0.00,,,-99.99,,2013-02-09 10:41:00,
2013-02-09 03:51:00,22.0,13.0,-100.00,ESE,116,4.0,6.0,67,0.00,,,-99.99,,2013-02-09 10:51:00,
2013-02-09 04:01:00,22.0,13.0,-100.00,SE,137,2.0,6.0,67,0.00,,,-99.99,,2013-02-09 11:01:00,
2013-02-09 04:11:00,22.0,13.0,-100.00,ESE,109,2.0,4.0,67,0.00,,,-99.99,,2013-02-09 11:11:00,
2013-02-09 04:21:00,22.0,13.0,-100.00,ESE,109,7.0,9.0,69,0.00,,,-99.99,,2013-02-09 11:21:00,
2013-02-09 04:31:00,22.0,13.0,-100.00,ESE,112,7.0,9.0,69,0.00,,,-99.99,,2013-02-09 11:31:00,
2013-02-09 04:41:00,22.0,13.0,-100.00,SE,126,3.0,9.0,69,0.00,,,-99.99,,2013-02-09 11:41:00,
2013-02-09 04:52:00,22.0,14.0,-100.00,East,88,4.0,9.0,71,0.00,,,-99.99,,2013-02-09 11:52:00,
2013-02-09 05:02:00,22.0,14.0,-100.00,SE,131,7.0,9.0,71,0.00,,,-99.99,,2013-02-09 12:02:00,
2013-02-09 05:11:00,22.0,14.0,-100.00,SE,134,7.0,9.0,70,0.00,,,-99.99,,2013-02-09 12:11:00,
2013-02-09 05:21:00,23.0,13.0,-100.00,SSE,147,6.0,10.0,67,0.00,,,-99.99,,2013-02-09 12:21:00,
2013-02-09 05:32:00,21.0,13.0,-100.00,SSW,200,2.0,4.0,71,0.00,,,-99.99,,2013-02-09 12:32:00,
2013-02-09 05:42:00,22.0,14.0,-100.00,ESE,119,6.0,9.0,70,0.00,,,-99.99,,2013-02-09 12:42:00,
2013-02-09 05:52:00,21.0,14.0,-100.00,SSW,196,3.0,6.0,72,0.00,,,-99.99,,2013-02-09 12:52:00,
2013-02-09 06:02:00,22.0,14.0,-100.00,WNW,299,1.0,2.0,73,0.00,,,-99.99,,2013-02-09 13:02:00,
2013-02-09 06:11:00,22.0,15.0,-100.00,WNW,287,1.0,2.0,74,0.00,,,-99.99,,2013-02-09 13:11:00,
2013-02-09 06:21:00,23.0,16.0,-100.00,SSE,150,1.0,3.0,75,0.00,,,-99.99,,2013-02-09 13:21:00,
2013-02-09 06:32:00,22.0,16.0,-100.00,North,8,2.0,5.0,74,0.00,,,-99.99,,2013-02-09 13:32:00,
2013-02-09 06:42:00,23.0,16.0,-100.00,North,10,2.0,4.0,74,0.00,,,-99.99,,2013-02-09 13:42:00,
2013-02-09 06:51:00,23.0,16.0,-100.00,East,80,1.0,2.0,75,0.00,,,-99.99,,2013-02-09 13:51:00,
2013-02-09 07:01:00,22.0,18.0,-100.00,SE,124,2.0,4.0,84,0.03,,,-99.99,,2013-02-09 14:01:00,
2013-02-09 07:11:00,22.0,20.0,-100.00,East,83,2.0,5.0,91,0.07,,,-99.99,,2013-02-09 14:11:00,
2013-02-09 07:21:00,20.0,19.0,-100.00,NNE,25,4.0,6.0,94,0.07,,,-99.99,,2013-02-09 14:21:00,
2013-02-09 07:31:00,20.0,19.0,-100.00,North,359,3.0,5.0,96,0.06,,,-99.99,,2013-02-09 14:31:00,
2013-02-09 07:41:00,21.0,20.0,-100.00,NNW,333,0.0,1.0,96,0.00,,,-99.99,,2013-02-09 14:41:00,
2013-02-09 07:52:00,21.0,20.0,-100.00,ENE,76,0.0,2.0,96,0.00,,,-99.99,,2013-02-09 14:52:00,
2013-02-09 08:02:00,21.0,20.0,-100.00,WSW,237,1.0,4.0,96,0.00,,,-99.99,,2013-02-09 15:02:00,
2013-02-09 08:11:00,20.0,19.0,-100.00,WSW,240,3.0,4.0,96,0.00,,,-99.99,,2013-02-09 15:11:00,
2013-02-09 08:21:00,22.0,20.0,-100.00,SE,145,6.0,9.0,95,0.00,,,-99.99,,2013-02-09 15:21:00,
2013-02-09 08:32:00,22.0,20.0,-100.00,East,100,6.0,11.0,95,0.07,,,-99.99,,2013-02-09 15:32:00,
2013-02-09 08:42:00,20.0,19.0,-100.00,NE,38,9.0,11.0,95,0.21,,,-99.99,,2013-02-09 15:42:00,
2013-02-09 08:51:00,19.0,18.0,-100.00,NNE,24,7.0,9.0,96,0.21,,,-99.99,,2013-02-09 15:51:00,
2013-02-09 09:01:00,19.0,18.0,-100.00,North,7,4.0,6.0,96,0.03,,,-99.99,,2013-02-09 16:01:00,
2013-02-09 09:11:00,19.0,18.0,-100.00,North,1,4.0,7.0,96,0.06,,,-99.99,,2013-02-09 16:11:00,
2013-02-09 09:22:00,19.0,18.0,-100.00,North,357,3.0,5.0,96,0.06,,,-99.99,,2013-02-09 16:22:00,
2013-02-09 09:31:00,19.0,18.0,-100.00,North,360,2.0,4.0,96,0.03,,,-99.99,,2013-02-09 16:31:00,
2013-02-09 09:41:00,19.0,18.0,-100.00,North,360,4.0,6.0,96,0.07,,,-99.99,,2013-02-09 16:41:00,
2013-02-09 09:51:00,19.0,18.0,-100.00,North,4,6.0,7.0,96,0.06,,,-99.99,,2013-02-09 16:51:00,
2013-02-09 10:01:00,19.0,18.0,-100.00,North,352,6.0,7.0,96,0.04,,,-99.99,,2013-02-09 17:01:00,
2013-02-09 10:11:00,20.0,18.0,-100.00,NNW,347,6.0,7.0,96,0.13,,,-99.99,,2013-02-09 17:11:00,
2013-02-09 10:21:00,19.0,18.0,-100.00,NNW,336,6.0,9.0,95,0.08,,,-99.99,,2013-02-09 17:21:00,
2013-02-09 10:32:00,19.0,18.0,-100.00,NNW,336,7.0,11.0,96,0.07,,,-99.99,,2013-02-09 17:32:00,
2013-02-09 10:41:00,19.0,18.0,-100.00,North,350,7.0,9.0,96,0.06,,,-99.99,,2013-02-09 17:41:00,
2013-02-09 10:52:00,19.0,18.0,-100.00,NNW,347,7.0,9.0,96,0.08,,,-99.99,,2013-02-09 17:52:00,
2013-02-09 11:02:00,19.0,18.0,-100.00,North,350,6.0,9.0,96,0.06,,,-99.99,,2013-02-09 18:02:00,
2013-02-09 11:12:00,19.0,18.0,-100.00,North,354,6.0,8.0,96,0.07,,,-99.99,,2013-02-09 18:12:00,
2013-02-09 11:23:00,20.0,18.0,-100.00,NNW,342,6.0,7.0,96,0.14,,,-99.99,,2013-02-09 18:23:00,
2013-02-09 11:32:00,19.0,18.0,-100.00,NNW,330,6.0,7.0,95,0.10,,,-99.99,,2013-02-09 18:32:00,
2013-02-09 11:42:00,20.0,18.0,-100.00,NW,325,6.0,7.0,95,0.07,,,-99.99,,2013-02-09 18:42:00,
2013-02-09 11:51:00,20.0,18.0,-100.00,NNW,342,6.0,7.0,95,0.04,,,-99.99,,2013-02-09 18:51:00,
2013-02-09 12:01:00,20.0,18.0,-100.00,NNW,337,6.0,8.0,95,0.04,,,-99.99,,2013-02-09 19:01:00,
2013-02-09 12:11:00,20.0,19.0,-100.00,NNW,332,6.0,7.0,96,0.01,,,-99.99,,2013-02-09 19:11:00,
2013-02-09 12:22:00,19.0,18.0,-100.00,NNW,336,7.0,9.0,95,0.04,,,-99.99,,2013-02-09 19:22:00,
2013-02-09 12:32:00,19.0,18.0,-100.00,NNW,332,6.0,7.0,95,0.01,,,-99.99,,2013-02-09 19:32:00,
2013-02-09 12:42:00,19.0,18.0,-100.00,North,349,6.0,7.0,95,0.01,,,-99.99,,2013-02-09 19:42:00,
2013-02-09 12:52:00,19.0,18.0,-100.00,NNW,347,4.0,7.0,95,0.01,,,-99.99,,2013-02-09 19:52:00,
2013-02-09 13:01:00,19.0,18.0,-100.00,NW,323,4.0,6.0,95,0.06,,,-99.99,,2013-02-09 20:01:00,
2013-02-09 13:11:00,19.0,18.0,-100.00,NW,305,4.0,6.0,95,0.16,,,-99.99,,2013-02-09 20:11:00,
2013-02-09 13:21:00,20.0,19.0,-100.00,WNW,295,4.0,6.0,96,0.11,,,-99.99,,2013-02-09 20:21:00,
2013-02-09 13:31:00,20.0,19.0,-100.00,WNW,284,4.0,6.0,96,0.10,,,-99.99,,2013-02-09 20:31:00,
2013-02-09 13:42:00,20.0,19.0,-100.00,West,278,4.0,6.0,96,0.13,,,-99.99,,2013-02-09 20:42:00,
2013-02-09 13:52:00,20.0,19.0,-100.00,WNW,287,6.0,7.0,96,0.03,,,-99.99,,2013-02-09 20:52:00,
2013-02-09 14:02:00,20.0,19.0,-100.00,WNW,289,7.0,8.0,95,0.01,,,-99.99,,2013-02-09 21:02:00,
2013-02-09 14:11:00,20.0,19.0,-100.00,WNW,284,7.0,9.0,95,0.00,,,-99.99,,2013-02-09 21:11:00,
2013-02-09 14:21:00,20.0,19.0,-100.00,WNW,285,7.0,9.0,96,0.00,,,-99.99,,2013-02-09 21:21:00,
2013-02-09 14:31:00,20.0,19.0,-100.00,WNW,289,7.0,9.0,95,0.00,,,-99.99,,2013-02-09 21:31:00,
2013-02-09 14:41:00,20.0,19.0,-100.00,WNW,291,8.0,9.0,95,0.00,,,-99.99,,2013-02-09 21:41:00,
2013-02-09 14:52:00,20.0,19.0,-100.00,WNW,302,10.0,12.0,95,0.00,,,-99.99,,2013-02-09 21:52:00,
2013-02-09 15:01:00,20.0,19.0,-100.00,WNW,302,12.0,13.0,95,0.00,,,-99.99,,2013-02-09 22:01:00,
2013-02-09 15:11:00,20.0,19.0,-100.00,WNW,299,11.0,13.0,96,0.00,,,-99.99,,2013-02-09 22:11:00,
2013-02-09 15:21:00,20.0,18.0,-100.00,WNW,291,10.0,12.0,95,0.00,,,-99.99,,2013-02-09 22:21:00,
2013-02-09 15:32:00,19.0,18.0,-100.00,WNW,287,10.0,12.0,95,0.00,,,-99.99,,2013-02-09 22:32:00,
2013-02-09 15:42:00,19.0,18.0,-100.00,WNW,289,10.0,12.0,95,0.00,,,-99.99,,2013-02-09 22:42:00,
2013-02-09 15:51:00,19.0,18.0,-100.00,WNW,298,12.0,16.0,96,0.00,,,-99.99,,2013-02-09 22:51:00,
2013-02-09 16:01:00,18.0,17.0,-100.00,WNW,301,14.0,17.0,95,0.00,,,-99.99,,2013-02-09 23:01:00,
2013-02-09 16:11:00,18.0,17.0,-100.00,WNW,299,14.0,17.0,95,0.00,,,-99.99,,2013-02-09 23:11:00,
2013-02-09 16:21:00,18.0,17.0,-100.00,WNW,294,13.0,16.0,96,0.00,,,-99.99,,2013-02-09 23:21:00,
2013-02-09 16:32:00,17.0,16.0,-100.00,WNW,288,12.0,15.0,95,0.00,,,-99.99,,2013-02-09 23:32:00,
2013-02-09 16:42:00,17.0,16.0,-100.00,WNW,282,10.0,13.0,95,0.01,,,-99.99,,2013-02-09 23:42:00,
2013-02-09 16:52:00,17.0,16.0,-100.00,WNW,284,11.0,12.0,95,0.00,,,-99.99,,2013-02-09 23:52:00,
2013-02-09 17:02:00,17.0,16.0,-100.00,WNW,285,12.0,14.0,96,0.00,,,-99.99,,2013-02-10 00:02:00,
2013-02-09 17:11:00,17.0,16.0,-100.00,WNW,287,12.0,14.0,96,0.00,,,-99.99,,2013-02-10 00:11:00,
2013-02-09 17:21:00,17.0,16.0,-100.00,WNW,285,11.0,13.0,96,0.00,,,-99.99,,2013-02-10 00:21:00,
2013-02-09 17:32:00,17.0,16.0,-100.00,WNW,285,11.0,13.0,96,0.00,,,-99.99,,2013-02-10 00:32:00,
2013-02-09 17:41:00,17.0,16.0,-100.00,WNW,285,12.0,16.0,96,0.00,,,-99.99,,2013-02-10 00:41:00,
2013-02-09 17:51:00,17.0,16.0,-100.00,WNW,284,12.0,15.0,96,0.01,,,-99.99,,2013-02-10 00:51:00,
2013-02-09 18:01:00,17.0,16.0,-100.00,WNW,282,14.0,17.0,96,0.01,,,-99.99,,2013-02-10 01:01:00,
2013-02-09 18:12:00,17.0,16.0,-100.00,West,280,16.0,19.0,95,0.01,,,-99.99,,2013-02-10 01:12:00,
2013-02-09 18:21:00,17.0,16.0,-100.00,West,277,14.0,17.0,95,0.00,,,-99.99,,2013-02-10 01:21:00,
2013-02-09 18:32:00,17.0,16.0,-100.00,West,277,14.0,16.0,95,0.00,,,-99.99,,2013-02-10 01:32:00,
2013-02-09 18:42:00,17.0,16.0,-100.00,West,275,14.0,16.0,95,0.00,,,-99.99,,2013-02-10 01:42:00,
2013-02-09 18:51:00,17.0,16.0,-100.00,West,277,14.0,17.0,95,0.00,,,-99.99,,2013-02-10 01:51:00,
2013-02-09 19:01:00,17.0,16.0,-100.00,West,278,14.0,17.0,95,0.01,,,-99.99,,2013-02-10 02:01:00,
2013-02-09 19:11:00,17.0,16.0,-100.00,West,278,14.0,17.0,95,0.04,,,-99.99,,2013-02-10 02:11:00,
2013-02-09 19:22:00,17.0,15.0,-100.00,West,275,14.0,16.0,95,0.01,,,-99.99,,2013-02-10 02:22:00,
2013-02-09 19:32:00,17.0,15.0,-100.00,West,275,13.0,16.0,95,0.01,,,-99.99,,2013-02-10 02:32:00,
2013-02-09 19:42:00,17.0,15.0,-100.00,West,277,14.0,17.0,95,0.00,,,-99.99,,2013-02-10 02:42:00,
2013-02-09 19:52:00,17.0,15.0,-100.00,West,277,14.0,18.0,95,0.01,,,-99.99,,2013-02-10 02:52:00,
2013-02-09 20:01:00,17.0,16.0,-100.00,West,277,16.0,20.0,95,0.01,,,-99.99,,2013-02-10 03:01:00,
2013-02-09 20:11:00,17.0,16.0,-100.00,West,280,16.0,20.0,95,0.03,,,-99.99,,2013-02-10 03:11:00,
2013-02-09 20:21:00,17.0,15.0,-100.00,West,277,16.0,20.0,95,0.01,,,-99.99,,2013-02-10 03:21:00,
2013-02-09 20:32:00,17.0,15.0,-100.00,West,277,18.0,21.0,95,0.01,,,-99.99,,2013-02-10 03:32:00,
2013-02-09 20:41:00,16.0,15.0,-100.00,West,274,19.0,24.0,95,0.01,,,-99.99,,2013-02-10 03:41:00,
2013-02-09 20:51:00,17.0,15.0,-100.00,West,274,19.0,23.0,94,0.00,,,-99.99,,2013-02-10 03:51:00,
2013-02-09 21:01:00,16.0,15.0,-100.00,West,274,20.0,24.0,94,0.00,,,-99.99,,2013-02-10 04:01:00,
2013-02-09 21:11:00,16.0,15.0,-100.00,West,272,20.0,24.0,94,0.00,,,-99.99,,2013-02-10 04:11:00,
2013-02-09 21:21:00,17.0,15.0,-100.00,West,274,19.0,23.0,93,0.00,,,-99.99,,2013-02-10 04:21:00,
2013-02-09 21:32:00,17.0,15.0,-100.00,West,277,19.0,22.0,93,0.01,,,-99.99,,2013-02-10 04:32:00,
2013-02-09 21:41:00,17.0,15.0,-100.00,West,275,19.0,22.0,93,0.06,,,-99.99,,2013-02-10 04:41:00,
2013-02-09 21:51:00,17.0,15.0,-100.00,West,272,18.0,21.0,93,0.06,,,-99.99,,2013-02-10 04:51:00,
2013-02-09 22:01:00,17.0,15.0,-100.00,West,272,19.0,24.0,94,0.08,,,-99.99,,2013-02-10 05:01:00,
2013-02-09 22:11:00,17.0,15.0,-100.00,West,274,20.0,24.0,93,0.04,,,-99.99,,2013-02-10 05:11:00,
2013-02-09 22:22:00,17.0,15.0,-100.00,West,274,18.0,22.0,93,0.01,,,-99.99,,2013-02-10 05:22:00,
2013-02-09 22:31:00,17.0,15.0,-100.00,West,274,18.0,22.0,94,0.01,,,-99.99,,2013-02-10 05:31:00,
2013-02-09 22:41:00,17.0,15.0,-100.00,West,275,18.0,22.0,94,0.01,,,-99.99,,2013-02-10 05:41:00,
2013-02-09 22:52:00,17.0,15.0,-100.00,West,274,17.0,21.0,94,0.01,,,-99.99,,2013-02-10 05:52:00,
2013-02-09 23:01:00,17.0,15.0,-100.00,West,274,17.0,22.0,94,0.00,,,-99.99,,2013-02-10 06:01:00,
2013-02-09 23:11:00,17.0,15.0,-100.00,West,275,17.0,22.0,94,0.00,,,-99.99,,2013-02-10 06:11:00,
2013-02-09 23:21:00,16.0,15.0,-100.00,West,274,16.0,20.0,94,0.00,,,-99.99,,2013-02-10 06:21:00,
2013-02-09 23:32:00,16.0,15.0,-100.00,West,272,18.0,22.0,94,0.01,,,-99.99,,2013-02-10 06:32:00,
2013-02-09 23:42:00,16.0,15.0,-100.00,West,274,17.0,20.0,94,0.03,,,-99.99,,2013-02-10 06:42:00,
2013-02-09 23:51:00,16.0,15.0,-100.00,West,277,18.0,23.0,94,0.01,,,-99.99,,2013-02-10 06:51:00,